Home   Weather   Keflavík   Past weeks

Flag for Iceland Past Weather in Keflavík, Iceland — Yesterday and Last 2 Weeks

Now
48 °F

Passing clouds.


Feels Like: 45 °F
Forecast: 41 / 49 °F
Wind: 7 mph from South

Location: Keflavikurflugvollur

Current Time: Sep 28, 2016 at 12:01:47 PM

Latest Report: Sep 28, 2016 at 11:30 AM


Visibility: N/A

Pressure: 29.65 "Hg

Humidity: 71%

Dew Point: 39 °F

Location of KeflavíkLocation

Past Weather in Keflavík — Graph

°F

Keflavík Temperature Yesterday

Maximum temperature yesterday: 52 °F (at 3:30 PM)
Minimum temperature yesterday: 37 °F (at 2:00 AM)
Average temperature yesterday: 44 °F

High & Low Weather Summary for the Past Weeks

 TemperatureHumidityPressure
High54 °F (Sep 16, 1:00 PM)100% (Sep 15, 8:00 AM)29.83 "Hg (Sep 15, 8:00 AM)
Low37 °F (Sep 27, 2:00 AM)54% (Sep 27, 3:30 PM)29.00 "Hg (Sep 22, 4:00 AM)
Average47 °F84%29.45 "Hg
* Reported Sep 13 10:00 AM — Sep 28 10:30 AM, Keflavík, Weather by CustomWeather, © 2016

Note: Actual official high and low records may vary slightly from our data, if they occured in-between our weather recording intervals... More about our weather records

Advertising

Keflavík Weather History for the Previous 24 Hours

Scroll right to see more
 ConditionsComfort  
Time TempWeatherWind HumidityBarometerVisibility
10:30 AM
Wed, Sep 28
46 °FPassing clouds.8 mph76%29.65 "HgN/A
10:00 AM45 °FPassing clouds.6 mph81%29.65 "HgN/A
9:30 AM43 °FPassing clouds.7 mph81%29.65 "HgN/A
9:00 AM41 °FPassing clouds.8 mph81%29.65 "HgN/A
8:30 AM41 °FPassing clouds.9 mph81%29.65 "HgN/A
8:00 AM39 °FSunny.10 mph81%29.65 "Hg10 mi
7:30 AM39 °FClear.9 mph81%29.65 "Hg10 mi
7:00 AM39 °FClear.12 mph81%29.65 "Hg10 mi
6:30 AM41 °FClear.10 mph81%29.68 "Hg10 mi
6:00 AM41 °FClear.12 mph81%29.68 "Hg10 mi
5:30 AM39 °FClear.8 mph93%29.68 "Hg10 mi
5:11 AM39 °FClear.7 mph93%29.68 "Hg10 mi
4:30 AM39 °FClear.9 mph93%29.68 "Hg10 mi
4:00 AM41 °FClear.7 mph87%29.68 "Hg10 mi
3:30 AM43 °FClear.8 mph81%29.68 "Hg10 mi
3:02 AM41 °FClear.9 mph87%29.68 "Hg10 mi
2:30 AM41 °FClear.8 mph87%29.71 "Hg10 mi
2:00 AM41 °FClear.8 mph87%29.68 "Hg10 mi
1:30 AM37 °FClear.9 mph93%29.71 "Hg10 mi
1:00 AM41 °FClear.8 mph87%29.68 "Hg10 mi
12:30 AM39 °FClear.5 mph87%29.68 "Hg10 mi
12:00 AM43 °FClear.No wind87%29.68 "Hg10 mi
11:30 PM
Tue, Sep 27
43 °FClear.3 mph87%29.68 "Hg10 mi
11:00 PM43 °FClear.6 mph81%29.68 "Hg10 mi
10:30 PM43 °FClear.7 mph81%29.65 "Hg10 mi
10:00 PM43 °FClear.8 mph81%29.65 "Hg10 mi
9:30 PM43 °FClear.8 mph81%29.65 "Hg10 mi
9:00 PM43 °FClear.7 mph81%29.65 "Hg10 mi
8:30 PM43 °FClear.8 mph81%29.62 "Hg10 mi
8:00 PM45 °FClear.8 mph76%29.62 "Hg10 mi
7:30 PM45 °FClear.8 mph76%29.62 "Hg10 mi
7:00 PM46 °FSunny.7 mph71%29.59 "Hg10 mi
6:30 PM48 °FSunny.8 mph71%29.59 "Hg10 mi
6:00 PM50 °FSunny.7 mph62%29.59 "Hg10 mi
5:30 PM50 °FSunny.7 mph62%29.56 "Hg10 mi
5:00 PM50 °FSunny.8 mph58%29.56 "Hg10 mi
4:30 PM50 °FPassing clouds.7 mph58%29.56 "HgN/A
4:00 PM50 °FSunny.7 mph54%29.53 "Hg10 mi
3:30 PM52 °FSunny.8 mph54%29.53 "Hg10 mi
3:00 PM50 °FPassing clouds.7 mph58%29.53 "HgN/A
2:30 PM50 °FPassing clouds.7 mph58%29.50 "HgN/A
2:00 PM50 °FPassing clouds.6 mph58%29.50 "HgN/A
1:30 PM48 °FPassing clouds.5 mph66%29.50 "HgN/A
1:00 PM50 °FSunny.3 mph58%29.50 "Hg10 mi
12:30 PM48 °FSunny.3 mph62%29.47 "Hg10 mi
12:00 PM48 °FPassing clouds.6 mph58%29.47 "HgN/A
Weather by CustomWeather, © 2016

See weather overviewHow to use our weather pages